Radiation Dose measured at exhaust stack monitor of Fukushima Daiichi Nuclear Power Station
Date,Time,Unit 5 6 shared exhaust cylinders,Wind Direction,Wind Velocity(m/s)
2024/03/03,00:00,3.7,west-southwest,3.7
2024/03/03,00:10,3.8,south-southwest,3.5
2024/03/03,00:20,3.6,south-southwest,3.8
2024/03/03,00:30,3.9,southwest,3.5
2024/03/03,00:40,3.7,west-southwest,1.8
2024/03/03,00:50,3.9,southwest,1.2
2024/03/03,01:00,3.8,southwest,2.8
2024/03/03,01:10,3.8,southwest,3.3
2024/03/03,01:20,4.0,west-southwest,1.9
2024/03/03,01:30,3.6,southwest,1.5
2024/03/03,01:40,3.6,west-northwest,1.5
2024/03/03,01:50,3.8,west,0.9
2024/03/03,02:00,3.6,-,CALM
2024/03/03,02:10,3.9,northwest,0.8
2024/03/03,02:20,3.7,north,1.5
2024/03/03,02:30,3.9,northwest,2.0
2024/03/03,02:40,3.9,west-northwest,3.3
2024/03/03,02:50,4.2,west-northwest,4.8
2024/03/03,03:00,3.7,west-northwest,5.9
2024/03/03,03:10,3.7,west-northwest,5.6
2024/03/03,03:20,4.0,west-northwest,6.3
2024/03/03,03:30,3.8,west-northwest,6.5
2024/03/03,03:40,3.7,west,5.0
2024/03/03,03:50,3.8,west-northwest,3.8
2024/03/03,04:00,3.8,west-northwest,5.5
2024/03/03,04:10,3.9,west-northwest,6.4
2024/03/03,04:20,3.7,west-northwest,7.0
2024/03/03,04:30,3.6,west,8.2
2024/03/03,04:40,3.9,west-northwest,9.3
2024/03/03,04:50,3.8,west-northwest,10.3
2024/03/03,05:00,3.9,west,10.2
2024/03/03,05:10,3.6,west,11.1
2024/03/03,05:20,3.9,west,11.3
2024/03/03,05:30,3.8,west,11.3
2024/03/03,05:40,3.8,west,9.0
2024/03/03,05:50,3.6,west-southwest,9.9
2024/03/03,06:00,3.7,west-southwest,10.9
2024/03/03,06:10,3.8,west-southwest,9.5
2024/03/03,06:20,3.8,southwest,8.5
2024/03/03,06:30,3.7,southwest,9.2
2024/03/03,06:40,3.8,southwest,8.9
2024/03/03,06:50,3.9,southwest,7.4
2024/03/03,07:00,3.7,southwest,6.5
2024/03/03,07:10,3.7,southwest,5.5
2024/03/03,07:20,3.8,southwest,5.8
2024/03/03,07:30,3.8,south-southwest,5.2
2024/03/03,07:40,3.8,south-southwest,5.5
2024/03/03,07:50,3.8,south-southwest,5.1
2024/03/03,08:00,3.7,southwest,4.2
2024/03/03,08:10,3.8,south-southwest,4.3
2024/03/03,08:20,3.8,south-southwest,4.6
2024/03/03,08:30,3.8,south-southwest,4.9
2024/03/03,08:40,3.8,south-southwest,5.8
2024/03/03,08:50,3.7,south-southwest,4.3
2024/03/03,09:00,3.8,south,4.6
2024/03/03,09:10,3.8,south,4.6
2024/03/03,09:20,3.8,south-southwest,4.7
2024/03/03,09:30,3.8,southwest,5.4
2024/03/03,09:40,3.8,south-southwest,6.4
2024/03/03,09:50,3.7,south-southwest,7.9
2024/03/03,10:00,3.7,south-southwest,7.9
2024/03/03,10:10,3.7,south-southwest,7.2
2024/03/03,10:20,3.9,south-southwest,8.2
2024/03/03,10:30,3.7,south-southwest,7.0
2024/03/03,10:40,3.8,south-southwest,5.9
2024/03/03,10:50,3.7,south,7.8
2024/03/03,11:00,4.0,south-southeast,7.8
2024/03/03,11:10,3.7,south-southeast,7.2
2024/03/03,11:20,4.0,south-southeast,5.3
2024/03/03,11:30,3.8,south,5.6
2024/03/03,11:40,3.7,south,5.1
2024/03/03,11:50,3.8,south-southeast,7.4
2024/03/03,12:00,3.7,south-southeast,8.2
2024/03/03,12:10,3.8,south-southeast,8.4
2024/03/03,12:20,3.8,south-southeast,8.9
2024/03/03,12:30,3.8,south-southeast,9.6
2024/03/03,12:40,3.8,south,6.6
2024/03/03,12:50,3.9,south-southwest,6.2
2024/03/03,13:00,3.9,south-southwest,3.3
2024/03/03,13:10,3.8,southwest,7.1
2024/03/03,13:20,3.7,west-southwest,5.9
2024/03/03,13:30,3.7,south-southwest,6.8
2024/03/03,13:40,3.7,southwest,3.6
2024/03/03,13:50,3.8,southwest,5.8
2024/03/03,14:00,3.7,west-southwest,6.5
2024/03/03,14:10,3.8,southwest,4.9
2024/03/03,14:20,3.7,southwest,4.3
2024/03/03,14:30,3.7,southwest,4.5
2024/03/03,14:40,3.7,southwest,6.2
2024/03/03,14:50,3.8,west-southwest,6.5
2024/03/03,15:00,3.6,west,5.3
2024/03/03,15:10,3.9,west,4.6
2024/03/03,15:20,3.8,west,3.5
2024/03/03,15:30,3.9,southwest,3.6
2024/03/03,15:40,3.7,south,4.1
2024/03/03,15:50,3.8,south,4.9
2024/03/03,16:00,3.8,south,5.2
2024/03/03,16:10,3.9,south,5.3
2024/03/03,16:20,3.8,south,3.3
2024/03/03,16:30,3.8,south-southwest,6.6
2024/03/03,16:40,3.8,south-southwest,2.5
2024/03/03,16:50,3.9,south-southwest,3.6
2024/03/03,17:00,3.9,south-southwest,5.5
2024/03/03,17:10,3.9,southwest,3.9
2024/03/03,17:20,3.8,southwest,2.6
2024/03/03,17:30,3.9,west,4.0
2024/03/03,17:40,3.7,west-southwest,5.0
2024/03/03,17:50,3.7,west,5.2
2024/03/03,18:00,3.9,west-southwest,3.3
2024/03/03,18:10,3.7,west,3.8
2024/03/03,18:20,3.9,west-northwest,4.4
2024/03/03,18:30,3.8,west,6.0
2024/03/03,18:40,3.7,west,7.6
2024/03/03,18:50,3.9,west,8.8
2024/03/03,19:00,3.6,west,7.6
2024/03/03,19:10,3.8,west,8.4
2024/03/03,19:20,3.8,west-southwest,8.6
2024/03/03,19:30,3.8,west,6.9
2024/03/03,19:40,3.8,west,8.1
2024/03/03,19:50,3.9,west-southwest,8.0
2024/03/03,20:00,3.8,west,8.9
2024/03/03,20:10,3.7,west,9.6
2024/03/03,20:20,3.8,west,11.0
2024/03/03,20:30,3.8,west,11.6
2024/03/03,20:40,3.7,west,12.8
2024/03/03,20:50,3.8,west-northwest,10.0
2024/03/03,21:00,3.7,west,8.0
2024/03/03,21:10,3.6,west,7.9
2024/03/03,21:20,3.7,west,7.2
2024/03/03,21:30,4.0,west-southwest,9.1
2024/03/03,21:40,3.7,west,9.0
2024/03/03,21:50,3.8,west,9.0
2024/03/03,22:00,3.7,west,8.0
2024/03/03,22:10,3.7,west,9.8
2024/03/03,22:20,3.8,west-southwest,8.8
2024/03/03,22:30,3.8,west,8.7
2024/03/03,22:40,3.7,west,7.3
2024/03/03,22:50,3.8,west,8.1
2024/03/03,23:00,3.6,west,7.1
2024/03/03,23:10,3.7,west,8.2
2024/03/03,23:20,3.7,west,9.3
2024/03/03,23:30,3.5,west,7.8
2024/03/03,23:40,3.7,west,6.7
2024/03/03,23:50,3.7,west,7.0
